STARLINK-3251 (49729 NORAD) Tracking and Keplerian Element Data

This shows tracking and keplerian element data for the satellite.

Feedback or suggestion? Click here.




ElementValue
Catalog49729
NameSTARLINK-3251
Epoch Orbit2684
Epoch Day140.91667824
Epoch Year2022
RAAN273.5744
Inclination53.2163
Eccentricity0.0002804
Argument of Perigee20.593
Mean Anonmoly352.5029
Mean Motion15.08842071
Decay Rate-0.00012905
L11 49729U 21115F 22140.91667824 -.00012905 00000+0 -79401-3 0 9995
L22 49729 53.2163 273.5744 0002804 20.5930 352.5029 15.08842071 26840

Live tracking and technical data element details for STARLINK-3251 (NORAD 49729). STARLINK-3251 can be tracked NOW for your location showing map with azimuth and elevation plus other details from your city location.

Track the satellite on the map from your city or location and see movement details for azimuth, elevation, latitude, longitude, range, height, and movement on the map or in text.







IsCatalogInMostPopularTable: catalog: 49729, numindb: 21
Update: records affected: 1



GetName: 49729 STARLINK-3251

Hit Count: updated at: Mon, 23 May 2022 21:42:02 GMT